Weather History for Tampa, FL

Change the Weather History Date:

Thursday, September 13, 2012

  Actual Average Record
Temperature  
Mean Temperature 83 °F 82 °F  
Max Temperature 91 °F 89 °F 95 °F (1990)
Min Temperature 75 °F 75 °F 66 °F (1956)
Degree Days  
Heating Degree Days 0 0  
Month to date heating degree days 0 0  
Since 1 July heating degree days 0 0  
Cooling Degree Days 18 17  
Month to date cooling degree days 231 229  
Year to date cooling degree days 3151 2744  
Growing Degree Days 33 (Base 50)    
Moisture  
Dew Point 69 °F    
Average Humidity 63    
Maximum Humidity 82    
Minimum Humidity 44    
Precipitation  
Precipitation 0.05 in 0.23 in 2.15 in (1903)
Month to date precipitation 4.30 3.16  
Year to date precipitation 49.26 36.88  
Sea Level Pressure  
Sea Level Pressure 30.07 in    
Wind  
Wind Speed 7 mph (NE)    
Max Wind Speed 13 mph    
Max Gust Speed 20 mph    
Visibility 10 miles    
Events Rain    
T = Trace of Precipitation, MM = Missing Value Source: NWS Daily Summary

Daily Weather History Graph

Daily Weather History Graph

Search for Another Location

Airport:

Trip Planner

Search our weather history database for the weather conditions in past years. The results will help you decide how hot, cold, wet, or windy it might be!

Date:

Astronomy

Sep. 13, 2012 Rise Set
Actual Time 7:14 AM EDT 7:36 PM EDT
Civil Twilight 6:51 AM EDT 8:00 PM EDT
Nautical Twilight 6:23 AM EDT 8:27 PM EDT
Astronomical Twilight 5:55 AM EDT 8:55 PM EDT
Moon 4:42 AM EDT (9/13) 5:51 PM EDT (9/13)
Length of Visible Light 13h 09m
Length of Day
12h 22m
Waning Crescent, 7% of the Moon is Illuminated
Sep 13
Waning Crescent
Sep 15
New
Sep 22
First Quarter
Sep 29
Full
Oct 8
Last Quarter

Hourly Weather History & Observations

Time (EDT) Temp. Heat Index Dew Point Humidity Pressure Visibility Wind Dir Wind Speed Gust Speed Precip Events Conditions
12:53 AM 77.0 °F - 69.1 °F 76% 30.10 in 10.0 mi NNE 6.9 mph - N/A   Partly Cloudy
1:53 AM 75.9 °F - 70.0 °F 82% 30.09 in 10.0 mi NE 5.8 mph - N/A   Partly Cloudy
2:53 AM 75.9 °F - 70.0 °F 82% 30.09 in 10.0 mi NNE 6.9 mph - N/A   Partly Cloudy
3:53 AM 75.9 °F - 70.0 °F 82% 30.07 in 10.0 mi NE 4.6 mph - N/A   Scattered Clouds
4:53 AM 75.9 °F - 70.0 °F 82% 30.07 in 10.0 mi NE 4.6 mph - N/A   Mostly Cloudy
5:53 AM 75.9 °F - 70.0 °F 82% 30.07 in 10.0 mi NE 5.8 mph - N/A   Mostly Cloudy
6:53 AM 75.0 °F - 70.0 °F 84% 30.09 in 10.0 mi NE 6.9 mph - N/A   Partly Cloudy
7:53 AM 75.0 °F - 70.0 °F 84% 30.09 in 10.0 mi NE 6.9 mph - N/A   Scattered Clouds
8:53 AM 79.0 °F - 70.0 °F 74% 30.10 in 10.0 mi NE 9.2 mph - N/A   Partly Cloudy
9:53 AM 81.0 °F 84.4 °F 70.0 °F 69% 30.12 in 10.0 mi NE 9.2 mph - N/A   Scattered Clouds
10:53 AM 84.9 °F 89.4 °F 70.0 °F 61% 30.12 in 10.0 mi ENE 10.4 mph 17.3 mph N/A   Mostly Cloudy
11:53 AM 86.0 °F 90.1 °F 69.1 °F 57% 30.12 in 10.0 mi Variable 6.9 mph - N/A   Mostly Cloudy
12:53 PM 88.0 °F 90.7 °F 66.9 °F 49% 30.09 in 10.0 mi East 10.4 mph 17.3 mph N/A   Mostly Cloudy
1:53 PM 89.1 °F 92.1 °F 66.9 °F 48% 30.08 in 10.0 mi ENE 8.1 mph - N/A   Mostly Cloudy
2:53 PM 91.0 °F 94.3 °F 66.9 °F 45% 30.05 in 10.0 mi NE 9.2 mph - N/A   Mostly Cloudy
3:53 PM 82.9 °F 88.0 °F 72.0 °F 69% 30.03 in 10.0 mi Variable 4.6 mph - 0.05 in Rain Light Rain
4:53 PM 86.0 °F 90.7 °F 70.0 °F 59% 30.02 in 10.0 mi NE 5.8 mph - 0.00 in   Mostly Cloudy
5:53 PM 86.0 °F 89.4 °F 68.0 °F 55% 30.02 in 10.0 mi East 10.4 mph 17.3 mph N/A   Mostly Cloudy
6:53 PM 84.0 °F 86.5 °F 66.9 °F 56% 30.03 in 10.0 mi Variable 5.8 mph - N/A   Mostly Cloudy
7:53 PM 82.9 °F 87.0 °F 70.0 °F 65% 30.04 in 10.0 mi East 8.1 mph - N/A   Scattered Clouds
8:53 PM 82.0 °F 85.9 °F 70.0 °F 67% 30.05 in 10.0 mi ENE 6.9 mph - N/A   Scattered Clouds
9:53 PM 81.0 °F 84.4 °F 70.0 °F 69% 30.07 in 10.0 mi Variable 6.9 mph - N/A   Mostly Cloudy
10:53 PM 81.0 °F 84.4 °F 70.0 °F 69% 30.08 in 10.0 mi ENE 4.6 mph - N/A   Overcast
11:53 PM 80.1 °F 83.2 °F 70.0 °F 71% 30.08 in 10.0 mi ENE 5.8 mph - N/A   Mostly Cloudy